| time (UTC) | temp F | wind direction | speed MPH | gust MPH | rain 1hr in | rain 24hr in | rain mn in | humidity % | barometer mb |
| 20260903065020 | 64 | 0.0 | 0.0 | 0.00 | 0.01 | 0.00 | 74 | 1016.7 | |
| 20260903064039 | 64 | 0.0 | 0.0 | 0.00 | 0.01 | 0.00 | 74 | 1016.5 | |
| 20260903063039 | 64 | 0.0 | 0.0 | 0.00 | 0.01 | 0.00 | 75 | 1016.6 | |
| 20260903062019 | 64 | 0.0 | 0.0 | 0.00 | 0.01 | 0.00 | 74 | 1016.5 | |
| 20260903061019 | 64 | 0.0 | 0.0 | 0.00 | 0.01 | 0.00 | 74 | 1016.6 | |
| 20260903060019 | 64 | 0.0 | 0.0 | 0.00 | 0.01 | 0.01 | 74 | 1016.6 | |
| 20260903055019 | 65 | 0.0 | 0.0 | 0.00 | 0.01 | 0.01 | 72 | 1016.9 | |
| 20260903054019 | 65 | 0.0 | 0.0 | 0.00 | 0.01 | 0.01 | 71 | 1016.8 | |
| 20260903053019 | 65 | 0.0 | 0.0 | 0.00 | 0.01 | 0.01 | 71 | 1017.0 | |
| 20260903052019 | 65 | 0.0 | 0.0 | 0.00 | 0.01 | 0.01 | 71 | 1017.0 | |
| 20260903051019 | 65 | 0.0 | 1.0 | 0.00 | 0.01 | 0.01 | 71 | 1016.8 | |
| 20260903050019 | 65 | 0.0 | 1.0 | 0.00 | 0.01 | 0.01 | 72 | 1016.6 | |
| 20260903045019 | 65 | 0.0 | 0.0 | 0.00 | 0.01 | 0.01 | 71 | 1016.4 | |
| 20260903044039 | 64 | 0.0 | 0.0 | 0.00 | 0.01 | 0.01 | 71 | 1015.7 | |
| 20260903043019 | 64 | 0.0 | 0.0 | 0.00 | 0.01 | 0.01 | 71 | 1015.8 | |
| 20260903042019 | 64 | 0.0 | 1.0 | 0.00 | 0.01 | 0.01 | 70 | 1016.0 | |
| 20260903041019 | 65 | 0.0 | 0.0 | 0.00 | 0.01 | 0.01 | 69 | 1015.3 | |
| 20260903040119 | 66 | 0.0 | 0.0 | 0.00 | 0.01 | 0.01 | 67 | 1015.4 | |
| 20260903035059 | 66 | 0.0 | 0.0 | 0.00 | 0.01 | 0.01 | 65 | 1015.3 | |
| 20260903034019 | 67 | 0.0 | 0.0 | 0.00 | 0.01 | 0.01 | 63 | 1015.1 | |
| 20260903033019 | 67 | 0.0 | 0.0 | 0.00 | 0.01 | 0.01 | 63 | 1014.8 | |
| 20260903032019 | 68 | 0.0 | 1.0 | 0.00 | 0.01 | 0.01 | 61 | 1014.8 | |
| 20260903031019 | 69 | 0.0 | 0.0 | 0.00 | 0.01 | 0.01 | 61 | 1014.4 | |
| 20260903030039 | 69 | 0.0 | 2.0 | 0.00 | 0.01 | 0.01 | 61 | 1014.3 | |
| 20260903025019 | 68 | 0.0 | 1.0 | 0.00 | 0.01 | 0.01 | 63 | 1013.9 | |
| 20260903024019 | 68 | 0.0 | 0.0 | 0.00 | 0.01 | 0.01 | 62 | 1013.3 | |
| 20260903023019 | 69 | 0.0 | 1.0 | 0.00 | 0.01 | 0.01 | 62 | 1013.4 | |
| 20260903022019 | 69 | 0.0 | 0.0 | 0.00 | 0.01 | 0.01 | 63 | 1013.4 | |
| 20260903021019 | 69 | 0.0 | 0.0 | 0.00 | 0.01 | 0.01 | 62 | 1012.7 | |
| 20260903020019 | 69 | 0.0 | 0.0 | 0.00 | 0.01 | 0.01 | 60 | 1012.6 | |
| 20260903015019 | 70 | 0.0 | 0.0 | 0.00 | 0.01 | 0.01 | 60 | 1012.6 | |
| 20260903014019 | 71 | 0.0 | 1.0 | 0.00 | 0.01 | 0.01 | 59 | 1012.2 | |
| 20260903013039 | 71 | 0.0 | 1.0 | 0.00 | 0.01 | 0.01 | 59 | 1012.4 | |
| 20260903012039 | 72 | 0.0 | 1.0 | 0.00 | 0.01 | 0.01 | 57 | 1012.3 | |
| 20260903011019 | 73 | 0.0 | 1.0 | 0.00 | 0.01 | 0.01 | 55 | 1012.3 | |
| 20260903010019 | 73 | 0.0 | 1.0 | 0.00 | 0.01 | 0.01 | 54 | 1012.2 | |
| 20260903005018 | 73 | 0.0 | 1.0 | 0.00 | 0.01 | 0.01 | 53 | 1012.1 | |
| 20260903004119 | 73 | 315 | 1.0 | 3.0 | 0.00 | 0.01 | 0.01 | 53 | 1012.5 |
| 20260903003039 | 73 | 0.0 | 0.0 | 0.00 | 0.01 | 0.01 | 55 | 1012.3 | |
| 20260903002019 | 73 | 0.0 | 0.0 | 0.01 | 0.01 | 0.01 | 55 | 1012.4 | |
| 20260903001018 | 74 | 0.0 | 0.0 | 0.01 | 0.01 | 0.01 | 53 | 1012.7 | |
| 20260903000019 | 73 | 338 | 1.0 | 3.0 | 0.01 | 0.01 | 0.01 | 57 | 1012.7 |
| 20260902235019 | 72 | 315 | 1.0 | 3.0 | 0.01 | 0.01 | 0.01 | 63 | 1012.5 |
| 20260902234018 | 71 | 315 | 2.0 | 4.0 | 0.01 | 0.01 | 0.01 | 61 | 1012.6 |
| 20260902233018 | 73 | 315 | 1.0 | 5.0 | 0.01 | 0.01 | 0.01 | 54 | 1013.6 |
| 20260902232018 | 78 | 293 | 5.0 | 11.0 | 0.00 | 0.00 | 0.00 | 40 | 1013.9 |
| 20260902231039 | 84 | 0.0 | 1.0 | 0.00 | 0.00 | 0.00 | 28 | 1013.8 | |
| 20260902230018 | 84 | 0.0 | 2.0 | 0.00 | 0.00 | 0.00 | 27 | 1013.0 | |
| 20260902225019 | 84 | 0.0 | 2.0 | 0.00 | 0.00 | 0.00 | 26 | 1012.9 | |
| 20260902224018 | 85 | 0.0 | 2.0 | 0.00 | 0.00 | 0.00 | 27 | 1013.1 | |
| 20260902223039 | 85 | 0.0 | 2.0 | 0.00 | 0.00 | 0.00 | 26 | 1013.0 | |
| 20260902222020 | 85 | 135 | 2.0 | 7.0 | 0.00 | 0.00 | 0.00 | 25 | 1012.9 |
| 20260902221141 | 85 | 135 | 2.0 | 4.0 | 0.00 | 0.00 | 0.00 | 25 | 1013.4 |
| 20260902220020 | 86 | 135 | 1.0 | 6.0 | 0.00 | 0.00 | 0.00 | 24 | 1013.4 |
| 20260902215020 | 87 | 158 | 2.0 | 7.0 | 0.00 | 0.00 | 0.00 | 24 | 1014.0 |
| 20260902214021 | 88 | 158 | 2.0 | 5.0 | 0.00 | 0.00 | 0.00 | 24 | 1014.2 |
| 20260902213040 | 88 | 158 | 2.0 | 6.0 | 0.00 | 0.00 | 0.00 | 23 | 1014.4 |
| 20260902212020 | 88 | 90 | 2.0 | 9.0 | 0.00 | 0.00 | 0.00 | 23 | 1014.5 |
| 20260902211020 | 89 | 135 | 2.0 | 5.0 | 0.00 | 0.00 | 0.00 | 23 | 1015.0 |
| 20260902210020 | 88 | 158 | 1.0 | 4.0 | 0.00 | 0.00 | 0.00 | 22 | 1015.1 |
| 20260902205020 | 88 | 158 | 3.0 | 7.0 | 0.00 | 0.00 | 0.00 | 23 | 1015.5 |
| 20260902204020 | 88 | 158 | 2.0 | 8.0 | 0.00 | 0.00 | 0.00 | 22 | 1015.6 |
| 20260902203020 | 88 | 158 | 3.0 | 6.0 | 0.00 | 0.00 | 0.00 | 25 | 1015.7 |
| 20260902202039 | 88 | 158 | 3.0 | 7.0 | 0.00 | 0.00 | 0.00 | 23 | 1015.8 |
| 20260902201020 | 88 | 158 | 3.0 | 8.0 | 0.00 | 0.00 | 0.00 | 26 | 1016.1 |
| 20260902200020 | 87 | 158 | 4.0 | 7.0 | 0.00 | 0.00 | 0.00 | 26 | 1015.9 |
| 20260902195020 | 87 | 113 | 2.0 | 7.0 | 0.00 | 0.00 | 0.00 | 24 | 1016.0 |
| 20260902194020 | 87 | 158 | 4.0 | 9.0 | 0.00 | 0.00 | 0.00 | 24 | 1016.0 |
| 20260902193021 | 87 | 158 | 4.0 | 8.0 | 0.00 | 0.00 | 0.00 | 24 | 1016.2 |
| 20260902192040 | 87 | 135 | 2.0 | 6.0 | 0.00 | 0.00 | 0.00 | 26 | 1016.4 |
| 20260902191020 | 87 | 135 | 3.0 | 9.0 | 0.00 | 0.00 | 0.00 | 25 | 1016.5 |
| 20260902190020 | 86 | 158 | 4.0 | 11.0 | 0.00 | 0.00 | 0.00 | 26 | 1016.8 |
| 20260902185020 | 86 | 158 | 3.0 | 9.0 | 0.00 | 0.00 | 0.00 | 27 | 1016.9 |
| 20260902184020 | 86 | 135 | 3.0 | 9.0 | 0.00 | 0.00 | 0.00 | 26 | 1017.1 |
| 20260902183020 | 86 | 158 | 4.0 | 8.0 | 0.00 | 0.00 | 0.00 | 23 | 1017.3 |
| 20260902182020 | 86 | 113 | 2.0 | 7.0 | 0.00 | 0.00 | 0.00 | 24 | 1017.5 |
| 20260902181020 | 85 | 135 | 3.0 | 7.0 | 0.00 | 0.00 | 0.00 | 26 | 1017.8 |
| 20260902180020 | 84 | 158 | 3.0 | 7.0 | 0.00 | 0.00 | 0.00 | 27 | 1017.6 |
| 20260902175020 | 84 | 135 | 3.0 | 8.0 | 0.00 | 0.00 | 0.00 | 26 | 1017.8 |
| 20260902174020 | 85 | 158 | 2.0 | 5.0 | 0.00 | 0.00 | 0.00 | 30 | 1018.4 |
| 20260902173020 | 84 | 135 | 3.0 | 6.0 | 0.00 | 0.00 | 0.00 | 27 | 1018.4 |
| 20260902172040 | 83 | 135 | 2.0 | 5.0 | 0.00 | 0.00 | 0.00 | 28 | 1018.7 |
| 20260902171020 | 83 | 203 | 2.0 | 6.0 | 0.00 | 0.00 | 0.00 | 29 | 1018.8 |
| 20260902170020 | 83 | 203 | 1.0 | 4.0 | 0.00 | 0.00 | 0.00 | 30 | 1019.0 |
| 20260902165020 | 82 | 180 | 2.0 | 4.0 | 0.00 | 0.00 | 0.00 | 30 | 1019.0 |
| 20260902164020 | 82 | 0.0 | 3.0 | 0.00 | 0.00 | 0.00 | 35 | 1019.1 | |
| 20260902163020 | 81 | 135 | 1.0 | 4.0 | 0.00 | 0.00 | 0.00 | 34 | 1018.8 |
| 20260902162140 | 80 | 158 | 2.0 | 5.0 | 0.00 | 0.00 | 0.00 | 36 | 1018.8 |
| 20260902161020 | 80 | 180 | 1.0 | 4.0 | 0.00 | 0.00 | 0.00 | 33 | 1018.5 |
| 20260902160020 | 79 | 158 | 1.0 | 4.0 | 0.00 | 0.00 | 0.00 | 34 | 1018.8 |
| 20260902155020 | 77 | 135 | 2.0 | 4.0 | 0.00 | 0.00 | 0.00 | 37 | 1018.5 |
| 20260902154020 | 76 | 158 | 1.0 | 4.0 | 0.00 | 0.01 | 0.00 | 40 | 1018.2 |
| 20260902153020 | 75 | 135 | 1.0 | 5.0 | 0.00 | 0.01 | 0.00 | 45 | 1018.7 |
| 20260902152040 | 75 | 0.0 | 2.0 | 0.00 | 0.01 | 0.00 | 47 | 1018.7 | |
| 20260902151020 | 73 | 90 | 1.0 | 4.0 | 0.00 | 0.01 | 0.00 | 47 | 1018.3 |
| 20260902150040 | 73 | 0.0 | 1.0 | 0.00 | 0.01 | 0.00 | 46 | 1018.5 | |
| 20260902145020 | 70 | 0.0 | 0.0 | 0.00 | 0.01 | 0.00 | 54 | 1018.0 | |
| 20260902144020 | 67 | 0.0 | 1.0 | 0.00 | 0.01 | 0.00 | 58 | 1017.7 | |
| 20260902143020 | 65 | 0.0 | 2.0 | 0.00 | 0.01 | 0.00 | 65 | 1017.6 | |
| 20260902142040 | 63 | 0.0 | 0.0 | 0.00 | 0.01 | 0.00 | 68 | 1017.3 | |
| 20260902141020 | 62 | 0.0 | 0.0 | 0.00 | 0.01 | 0.00 | 72 | 1017.4 | |
| 20260902140020 | 61 | 0.0 | 1.0 | 0.00 | 0.01 | 0.00 | 74 | 1017.4 | |
| 20260902135023 | 59 | 0.0 | 1.0 | 0.00 | 0.01 | 0.00 | 79 | 1017.4 | |
| 20260902134020 | 58 | 0.0 | 2.0 | 0.00 | 0.01 | 0.00 | 80 | 1016.9 | |
| 20260902133020 | 57 | 0.0 | 0.0 | 0.00 | 0.01 | 0.00 | 83 | 1016.8 | |
| 20260902132019 | 56 | 0.0 | 0.0 | 0.00 | 0.01 | 0.00 | 82 | 1016.6 | |
| 20260902131020 | 55 | 0.0 | 0.0 | 0.00 | 0.01 | 0.00 | 84 | 1016.3 | |
| 20260902130040 | 55 | 0.0 | 0.0 | 0.00 | 0.01 | 0.00 | 84 | 1016.5 | |
| 20260902125020 | 55 | 0.0 | 1.0 | 0.00 | 0.01 | 0.00 | 84 | 1016.5 | |
| 20260902124020 | 54 | 0.0 | 1.0 | 0.00 | 0.01 | 0.00 | 83 | 1016.5 | |
| 20260902123020 | 55 | 0.0 | 0.0 | 0.00 | 0.01 | 0.00 | 84 | 1016.7 | |
| 20260902122020 | 55 | 0.0 | 1.0 | 0.00 | 0.01 | 0.00 | 84 | 1016.6 | |
| 20260902121040 | 55 | 0.0 | 0.0 | 0.00 | 0.01 | 0.00 | 84 | 1016.5 | |
| 20260902120019 | 56 | 0.0 | 2.0 | 0.00 | 0.01 | 0.00 | 84 | 1016.6 | |
| 20260902115020 | 56 | 0.0 | 1.0 | 0.00 | 0.01 | 0.00 | 84 | 1016.5 | |
| 20260902114020 | 56 | 0.0 | 0.0 | 0.00 | 0.01 | 0.00 | 83 | 1016.6 | |
| 20260902113019 | 56 | 0.0 | 0.0 | 0.00 | 0.01 | 0.00 | 81 | 1016.7 | |
| 20260902112019 | 56 | 0.0 | 0.0 | 0.00 | 0.01 | 0.00 | 82 | 1016.9 | |
| 20260902111019 | 56 | 0.0 | 0.0 | 0.00 | 0.01 | 0.00 | 81 | 1016.7 | |
| 20260902110040 | 57 | 0.0 | 1.0 | 0.00 | 0.01 | 0.00 | 81 | 1017.3 | |
| 20260902105019 | 57 | 0.0 | 1.0 | 0.00 | 0.01 | 0.00 | 82 | 1017.4 | |
| 20260902104019 | 57 | 0.0 | 0.0 | 0.00 | 0.01 | 0.00 | 80 | 1017.3 | |
| 20260902103019 | 57 | 0.0 | 0.0 | 0.00 | 0.01 | 0.00 | 80 | 1017.6 | |
| 20260902102019 | 58 | 0.0 | 1.0 | 0.00 | 0.01 | 0.00 | 79 | 1017.7 | |
| 20260902101020 | 58 | 0.0 | 0.0 | 0.00 | 0.01 | 0.00 | 79 | 1017.7 | |
| 20260902100019 | 58 | 0.0 | 1.0 | 0.00 | 0.01 | 0.00 | 78 | 1017.7 | |
| 20260902095019 | 58 | 0.0 | 0.0 | 0.00 | 0.01 | 0.00 | 76 | 1017.8 | |
| 20260902094059 | 59 | 0.0 | 1.0 | 0.00 | 0.01 | 0.00 | 75 | 1018.0 | |
| 20260902093020 | 59 | 0.0 | 0.0 | 0.00 | 0.01 | 0.00 | 73 | 1017.3 | |
| 20260902092019 | 60 | 0.0 | 0.0 | 0.00 | 0.01 | 0.00 | 72 | 1017.2 | |
| 20260902091019 | 60 | 0.0 | 0.0 | 0.00 | 0.01 | 0.00 | 71 | 1017.2 | |
| 20260902090019 | 61 | 0.0 | 0.0 | 0.00 | 0.01 | 0.00 | 70 | 1017.1 | |
| 20260902085019 | 62 | 0.0 | 0.0 | 0.00 | 0.01 | 0.00 | 68 | 1017.1 | |
| 20260902084019 | 62 | 0.0 | 1.0 | 0.00 | 0.01 | 0.00 | 67 | 1017.1 | |
| 20260902083020 | 62 | 0.0 | 0.0 | 0.00 | 0.01 | 0.00 | 68 | 1017.4 | |
| 20260902082019 | 62 | 0.0 | 2.0 | 0.00 | 0.01 | 0.00 | 68 | 1017.5 | |
| 20260902081019 | 62 | 0.0 | 2.0 | 0.00 | 0.01 | 0.00 | 66 | 1017.5 | |
| 20260902080019 | 62 | 0.0 | 0.0 | 0.00 | 0.01 | 0.00 | 68 | 1017.8 | |
| 20260902075019 | 62 | 0.0 | 0.0 | 0.00 | 0.01 | 0.00 | 68 | 1017.9 | |
| 20260902074019 | 62 | 0.0 | 0.0 | 0.00 | 0.01 | 0.00 | 68 | 1017.9 | |
| 20260902073019 | 62 | 0.0 | 0.0 | 0.00 | 0.01 | 0.00 | 67 | 1017.9 | |
| 20260902072019 | 62 | 0.0 | 0.0 | 0.00 | 0.01 | 0.00 | 66 | 1018.0 | |
| 20260902071019 | 62 | 0.0 | 0.0 | 0.00 | 0.01 | 0.00 | 67 | 1018.0 | |
| 20260902070019 | 62 | 0.0 | 0.0 | 0.00 | 0.01 | 0.00 | 66 | 1017.7 |